星链-1063 (STARLINK-1063 )

导读 | 星芒AI

STARLINK-1063 是 SpaceX Starlink 项目中的一颗低轨通信卫星,属于第 11 批(v1.5 版本)部署的 53 颗卫星之一,于 2022 年 11 月 18 日由猎鹰 9 号火箭送入近地轨道。该卫星运行在约 550 公里的高度,旨在为全球提供高速互联网服务。Starlink 卫星采用先进推进系统和激光通信技术,支持快速组网与高效数据传输。STARLINK-1063 与其他卫星协同工作,提升覆盖范围与网络稳定性,服务于偏远地区及商业用户。

基本信息
目录编号:
44768
目录名称:
STARLINK-1063
国际标识:
2019-074BH
轨道中心:
EARTH
卫星名称:
星链-1063
卫星全名:
星链-1063 (STARLINK-1063 )
卫星状态:
在轨 (已飞行2224 天)
发射日期:
2019-11-11 UTC
国别 :
美国 (US)
星等 :
--
轨道信息
数据来源 国际轨道数据
星历时间: 2025-12-13T07:23:42+0800
10小时前
查看轨道信息
半长轴: 6925.424km
偏心率: 0.0001326
轨道倾角: 53.054°
近地点辐角 90.410°
升交点赤经 255.898°
平近点角 269.704°
近地点: 546.37km
远地点: 548.208km
周期: 95.594分钟
每日圈数: 15.063756
详细信息
固有亮度:
5
最大亮度:
2.5
卫星平台:
Starlink V1.0
覆盖范围:
全球
运营商:
太空探索技术公司
运营商所在国:
美国
制造商(研发单位):
太空探索技术公司
制造商所在国:
美国
使用方式:
暂无
卫星简介
星链(Starlink)计划是由太空探索技术公司(SpaceX)提出的一个巨型低轨卫星互联网星座项目,计划在2019年至2024年间在太空搭建由约1.2万颗卫星组成的“星链”网络,其中1584颗将部署在地球上空550千米处的近地轨道,并从2020年开始工作。该卫星仍在工作。
2D轨道图
3D轨道图
轨道高度分析图
轨道倾角分析图
轨道综合分析图
查看轨道综合分析图